Year,Month,Day,Hour,Minute,Value (Times are PST for temperature in C)
2010,12,12,00,00,6.80
2010,12,12,00,01,6.80
2010,12,12,00,02,6.80
2010,12,12,00,03,6.80
2010,12,12,00,04,6.80
2010,12,12,00,05,6.80
2010,12,12,00,06,6.80
2010,12,12,00,07,6.80
2010,12,12,00,08,6.80
2010,12,12,00,09,6.80
2010,12,12,00,10,6.80
2010,12,12,00,11,6.80
2010,12,12,00,12,6.80
2010,12,12,00,13,6.80
2010,12,12,00,14,6.80
2010,12,12,00,15,6.80
2010,12,12,00,16,6.80
2010,12,12,00,17,6.80
2010,12,12,00,18,6.80
2010,12,12,00,19,6.80
2010,12,12,00,20,6.80
2010,12,12,00,21,6.80
2010,12,12,00,22,6.80
2010,12,12,00,23,6.80
2010,12,12,00,24,6.80
2010,12,12,00,25,6.80
2010,12,12,00,26,6.80
2010,12,12,00,27,6.80
2010,12,12,00,28,6.80
2010,12,12,00,29,6.80
2010,12,12,00,30,6.80
2010,12,12,00,31,6.80
2010,12,12,00,32,6.80
2010,12,12,00,33,6.80
2010,12,12,00,34,6.80
2010,12,12,00,35,6.80
2010,12,12,00,36,6.80
2010,12,12,00,37,6.80
2010,12,12,00,38,6.80
2010,12,12,00,39,6.80
2010,12,12,00,40,6.80
2010,12,12,00,41,6.80
2010,12,12,00,42,6.80
2010,12,12,00,43,6.80
2010,12,12,00,44,6.80
2010,12,12,00,45,6.80
2010,12,12,00,46,6.80
2010,12,12,00,47,6.80
2010,12,12,00,48,6.80
2010,12,12,00,49,6.70
2010,12,12,00,50,6.70
2010,12,12,00,51,6.70
2010,12,12,00,52,6.70
2010,12,12,00,53,6.70
2010,12,12,00,54,6.70
2010,12,12,00,55,6.60
2010,12,12,00,56,6.60
2010,12,12,00,57,6.60
2010,12,12,00,58,6.60
2010,12,12,00,59,6.60
2010,12,12,01,00,6.50
2010,12,12,01,01,6.50
2010,12,12,01,02,6.50
2010,12,12,01,03,6.40
2010,12,12,01,04,6.40
2010,12,12,01,05,6.40
2010,12,12,01,06,6.40
2010,12,12,01,07,6.40
2010,12,12,01,08,6.40
2010,12,12,01,09,6.40
2010,12,12,01,10,6.40
2010,12,12,01,11,6.40
2010,12,12,01,12,6.40
2010,12,12,01,13,6.40
2010,12,12,01,14,6.40
2010,12,12,01,15,6.40
2010,12,12,01,16,6.40
2010,12,12,01,17,6.40
2010,12,12,01,18,6.30
2010,12,12,01,19,6.30
2010,12,12,01,20,6.30
2010,12,12,01,21,6.30
2010,12,12,01,22,6.30
2010,12,12,01,23,6.30
2010,12,12,01,24,6.20
2010,12,12,01,25,6.20
2010,12,12,01,26,6.20
2010,12,12,01,27,6.20
2010,12,12,01,28,6.20
2010,12,12,01,29,6.20
2010,12,12,01,30,6.20
2010,12,12,01,31,6.20
2010,12,12,01,32,6.20
2010,12,12,01,33,6.20
2010,12,12,01,34,6.20
2010,12,12,01,35,6.20
2010,12,12,01,36,6.10
2010,12,12,01,37,6.10
2010,12,12,01,38,6.10
2010,12,12,01,39,6.10
2010,12,12,01,40,6.10
2010,12,12,01,41,6.10
2010,12,12,01,42,6.10
2010,12,12,01,43,6.10
2010,12,12,01,44,6.10
2010,12,12,01,45,6.10
2010,12,12,01,46,6.10
2010,12,12,01,47,6.10
2010,12,12,01,48,6.10
2010,12,12,01,49,6.10
2010,12,12,01,50,6.10
2010,12,12,01,51,6.10
2010,12,12,01,52,6.10
2010,12,12,01,53,6.00
2010,12,12,01,54,6.00
2010,12,12,01,55,6.00
2010,12,12,01,56,6.00
2010,12,12,01,57,5.90
2010,12,12,01,58,5.90
2010,12,12,01,59,5.90
2010,12,12,02,00,5.90
2010,12,12,02,01,5.90
2010,12,12,02,02,5.90
2010,12,12,02,03,5.90
2010,12,12,02,04,5.90
2010,12,12,02,05,5.90
2010,12,12,02,06,5.90
2010,12,12,02,07,5.90
2010,12,12,02,08,5.90
2010,12,12,02,09,5.80
2010,12,12,02,10,5.90
2010,12,12,02,11,5.90
2010,12,12,02,12,5.90
2010,12,12,02,13,5.90
2010,12,12,02,14,5.90
2010,12,12,02,15,5.90
2010,12,12,02,16,5.90
2010,12,12,02,17,5.90
2010,12,12,02,18,5.90
2010,12,12,02,19,5.90
2010,12,12,02,20,5.90
2010,12,12,02,21,5.90
2010,12,12,02,22,5.90
2010,12,12,02,23,5.90
2010,12,12,02,24,5.90
2010,12,12,02,25,5.90
2010,12,12,02,26,5.90
2010,12,12,02,27,5.90
2010,12,12,02,28,5.90
2010,12,12,02,29,5.90
2010,12,12,02,30,5.90
2010,12,12,02,31,5.90
2010,12,12,02,32,5.90
2010,12,12,02,33,5.90
2010,12,12,02,34,5.90
2010,12,12,02,35,5.90
2010,12,12,02,36,5.90
2010,12,12,02,37,5.90
2010,12,12,02,38,5.90
2010,12,12,02,39,5.80
2010,12,12,02,40,5.80
2010,12,12,02,41,5.80
2010,12,12,02,42,5.80
2010,12,12,02,43,5.90
2010,12,12,02,44,5.90
2010,12,12,02,45,5.90
2010,12,12,02,46,5.90
2010,12,12,02,47,5.90
2010,12,12,02,48,5.90
2010,12,12,02,49,5.90
2010,12,12,02,50,5.90
2010,12,12,02,51,5.90
2010,12,12,02,52,5.90
2010,12,12,02,53,5.90
2010,12,12,02,54,5.90
2010,12,12,02,55,5.90
2010,12,12,02,56,5.90
2010,12,12,02,57,5.90
2010,12,12,02,58,5.90
2010,12,12,02,59,5.90
2010,12,12,03,00,5.90
2010,12,12,03,01,5.90
2010,12,12,03,02,5.90
2010,12,12,03,03,5.90
2010,12,12,03,04,5.90
2010,12,12,03,05,5.90
2010,12,12,03,06,5.90
2010,12,12,03,07,5.90
2010,12,12,03,08,5.90
2010,12,12,03,09,5.90
2010,12,12,03,10,5.90
2010,12,12,03,11,5.90
2010,12,12,03,12,5.90
2010,12,12,03,13,5.90
2010,12,12,03,14,5.90
2010,12,12,03,15,5.90
2010,12,12,03,16,5.90
2010,12,12,03,17,5.90
2010,12,12,03,18,5.90
2010,12,12,03,19,5.90
2010,12,12,03,20,5.90
2010,12,12,03,21,5.90
2010,12,12,03,22,5.90
2010,12,12,03,23,5.90
2010,12,12,03,24,5.90
2010,12,12,03,25,5.90
2010,12,12,03,26,5.90
2010,12,12,03,27,5.90
2010,12,12,03,28,5.90
2010,12,12,03,29,5.90
2010,12,12,03,30,5.90
2010,12,12,03,31,5.90
2010,12,12,03,32,6.00
2010,12,12,03,33,6.00
2010,12,12,03,34,6.10
2010,12,12,03,35,6.10
2010,12,12,03,36,6.10
2010,12,12,03,37,6.10
2010,12,12,03,38,6.10
2010,12,12,03,39,6.10
2010,12,12,03,40,6.10
2010,12,12,03,41,6.00
2010,12,12,03,42,6.00
2010,12,12,03,43,6.00
2010,12,12,03,44,6.00
2010,12,12,03,45,6.00
2010,12,12,03,46,6.00
2010,12,12,03,47,6.00
2010,12,12,03,48,6.00
2010,12,12,03,49,6.00
2010,12,12,03,50,6.00
2010,12,12,03,51,6.10
2010,12,12,03,52,6.10
2010,12,12,03,53,6.10
2010,12,12,03,54,6.10
2010,12,12,03,55,6.10
2010,12,12,03,56,6.10
2010,12,12,03,57,6.10
2010,12,12,03,58,6.10
2010,12,12,03,59,6.00
2010,12,12,04,00,6.00
2010,12,12,04,01,6.00
2010,12,12,04,02,6.00
2010,12,12,04,03,6.00
2010,12,12,04,04,6.00
2010,12,12,04,05,6.00
2010,12,12,04,06,6.00
2010,12,12,04,07,6.00
2010,12,12,04,08,6.00
2010,12,12,04,09,5.90
2010,12,12,04,10,5.90
2010,12,12,04,11,5.90
2010,12,12,04,12,5.90
2010,12,12,04,13,5.90
2010,12,12,04,14,5.90
2010,12,12,04,15,5.90
2010,12,12,04,16,5.90
2010,12,12,04,17,5.90
2010,12,12,04,18,5.90
2010,12,12,04,19,5.90
2010,12,12,04,20,5.90
2010,12,12,04,21,5.90
2010,12,12,04,22,5.90
2010,12,12,04,23,5.90
2010,12,12,04,24,5.90
2010,12,12,04,25,5.90
2010,12,12,04,26,5.90
2010,12,12,04,27,5.90
2010,12,12,04,28,5.90
2010,12,12,04,29,5.90
2010,12,12,04,30,5.90
2010,12,12,04,31,5.90
2010,12,12,04,32,5.90
2010,12,12,04,33,5.90
2010,12,12,04,34,5.90
2010,12,12,04,35,5.90
2010,12,12,04,36,5.90
2010,12,12,04,37,5.90
2010,12,12,04,38,5.90
2010,12,12,04,39,5.90
2010,12,12,04,40,6.00
2010,12,12,04,41,6.00
2010,12,12,04,42,6.00
2010,12,12,04,43,6.00
2010,12,12,04,44,6.00
2010,12,12,04,45,6.00
2010,12,12,04,46,6.10
2010,12,12,04,47,6.10
2010,12,12,04,48,6.10
2010,12,12,04,49,6.10
2010,12,12,04,50,6.10
2010,12,12,04,51,6.10
2010,12,12,04,52,6.10
2010,12,12,04,53,6.10
2010,12,12,04,54,6.10
2010,12,12,04,55,6.10
2010,12,12,04,56,6.10
2010,12,12,04,57,6.10
2010,12,12,04,58,6.10
2010,12,12,04,59,6.10
2010,12,12,05,00,6.10
2010,12,12,05,01,6.10
2010,12,12,05,02,6.10
2010,12,12,05,03,6.10
2010,12,12,05,04,6.10
2010,12,12,05,05,6.10
2010,12,12,05,06,6.10
2010,12,12,05,07,6.10
2010,12,12,05,08,6.10
2010,12,12,05,09,6.10
2010,12,12,05,10,6.10
2010,12,12,05,11,6.10
2010,12,12,05,12,6.10
2010,12,12,05,13,6.10
2010,12,12,05,14,6.10
2010,12,12,05,15,6.20
2010,12,12,05,16,6.20
2010,12,12,05,17,6.20
2010,12,12,05,18,6.20
2010,12,12,05,19,6.20
2010,12,12,05,20,6.20
2010,12,12,05,21,6.20
2010,12,12,05,22,6.20
2010,12,12,05,23,6.20
2010,12,12,05,24,6.20
2010,12,12,05,25,6.20
2010,12,12,05,26,6.20
2010,12,12,05,27,6.20
2010,12,12,05,28,6.30
2010,12,12,05,29,6.30
2010,12,12,05,30,6.30
2010,12,12,05,31,6.30
2010,12,12,05,32,6.30
2010,12,12,05,33,6.30
2010,12,12,05,34,6.30
2010,12,12,05,35,6.30
2010,12,12,05,36,6.30
2010,12,12,05,37,6.30
2010,12,12,05,38,6.40
2010,12,12,05,39,6.40
2010,12,12,05,40,6.40
2010,12,12,05,41,6.50
2010,12,12,05,42,6.50
2010,12,12,05,43,6.50
2010,12,12,05,44,6.60
2010,12,12,05,45,6.60
2010,12,12,05,46,6.60
2010,12,12,05,47,6.60
2010,12,12,05,48,6.60
2010,12,12,05,49,6.60
2010,12,12,05,50,6.60
2010,12,12,05,51,6.60
2010,12,12,05,52,6.60
2010,12,12,05,53,6.60
2010,12,12,05,54,6.60
2010,12,12,05,55,6.70
2010,12,12,05,56,6.70
2010,12,12,05,57,6.70
2010,12,12,05,58,6.70
2010,12,12,05,59,6.80
2010,12,12,06,00,6.80
2010,12,12,06,01,6.80
2010,12,12,06,02,6.90
2010,12,12,06,03,6.90
2010,12,12,06,04,6.90
2010,12,12,06,05,6.90
2010,12,12,06,06,6.90
2010,12,12,06,07,7.00
2010,12,12,06,08,7.00
2010,12,12,06,09,7.00
2010,12,12,06,10,7.10
2010,12,12,06,11,7.10
2010,12,12,06,12,7.10
2010,12,12,06,13,7.10
2010,12,12,06,14,7.10
2010,12,12,06,15,7.10
2010,12,12,06,16,7.10
2010,12,12,06,17,7.10
2010,12,12,06,18,7.10
2010,12,12,06,19,7.00
2010,12,12,06,20,7.00
2010,12,12,06,21,7.00
2010,12,12,06,22,6.90
2010,12,12,06,23,6.90
2010,12,12,06,24,6.90
2010,12,12,06,25,6.90
2010,12,12,06,26,6.90
2010,12,12,06,27,6.80
2010,12,12,06,28,6.80
2010,12,12,06,29,6.80
2010,12,12,06,30,6.90
2010,12,12,06,31,6.90
2010,12,12,06,32,6.90
2010,12,12,06,33,6.90
2010,12,12,06,34,7.00
2010,12,12,06,35,7.00
2010,12,12,06,36,7.10
2010,12,12,06,37,7.10
2010,12,12,06,38,7.20
2010,12,12,06,39,7.20
2010,12,12,06,40,7.20
2010,12,12,06,41,7.20
2010,12,12,06,42,7.20
2010,12,12,06,43,7.20
2010,12,12,06,44,7.20
2010,12,12,06,45,7.20
2010,12,12,06,46,7.30
2010,12,12,06,47,7.30
2010,12,12,06,48,7.30
2010,12,12,06,49,7.30
2010,12,12,06,50,7.40
2010,12,12,06,51,7.40
2010,12,12,06,52,7.40
2010,12,12,06,53,7.50
2010,12,12,06,54,7.50
2010,12,12,06,55,7.60
2010,12,12,06,56,7.60
2010,12,12,06,57,7.60
2010,12,12,06,58,7.60
2010,12,12,06,59,7.60
2010,12,12,07,00,7.60
2010,12,12,07,01,7.70
2010,12,12,07,02,7.70
2010,12,12,07,03,7.70
2010,12,12,07,04,7.80
2010,12,12,07,05,7.80
2010,12,12,07,06,7.80
2010,12,12,07,07,7.90
2010,12,12,07,08,7.90
2010,12,12,07,09,8.00
2010,12,12,07,10,8.00
2010,12,12,07,11,8.00
2010,12,12,07,12,8.10
2010,12,12,07,13,8.20
2010,12,12,07,14,8.30
2010,12,12,07,15,8.50
2010,12,12,07,16,8.60
2010,12,12,07,17,8.70
2010,12,12,07,18,8.70
2010,12,12,07,19,8.80
2010,12,12,07,20,8.80
2010,12,12,07,21,8.90
2010,12,12,07,22,8.90
2010,12,12,07,23,9.00
2010,12,12,07,24,9.00
2010,12,12,07,25,9.10
2010,12,12,07,26,9.10
2010,12,12,07,27,9.20
2010,12,12,07,28,9.20
2010,12,12,07,29,9.20
2010,12,12,07,30,9.30
2010,12,12,07,31,9.30
2010,12,12,07,32,9.30
2010,12,12,07,33,9.30
2010,12,12,07,34,9.30
2010,12,12,07,35,9.30
2010,12,12,07,36,9.30
2010,12,12,07,37,9.30
2010,12,12,07,38,9.30
2010,12,12,07,39,9.30
2010,12,12,07,40,9.30
2010,12,12,07,41,9.30
2010,12,12,07,42,9.30
2010,12,12,07,43,9.30
2010,12,12,07,44,9.30
2010,12,12,07,45,9.30
2010,12,12,07,46,9.30
2010,12,12,07,47,9.30
2010,12,12,07,48,9.30
2010,12,12,07,49,9.40
2010,12,12,07,50,9.30
2010,12,12,07,51,9.30
2010,12,12,07,52,9.30
2010,12,12,07,53,9.30
2010,12,12,07,54,9.40
2010,12,12,07,55,9.40
2010,12,12,07,56,9.40
2010,12,12,07,57,9.40
2010,12,12,07,58,9.40
2010,12,12,07,59,9.50
2010,12,12,08,00,9.50
2010,12,12,08,01,9.60
2010,12,12,08,02,9.60
2010,12,12,08,03,9.60
2010,12,12,08,04,9.60
2010,12,12,08,05,9.60
2010,12,12,08,06,9.60
2010,12,12,08,07,9.60
2010,12,12,08,08,9.50
2010,12,12,08,09,9.50
2010,12,12,08,10,9.60
2010,12,12,08,11,9.60
2010,12,12,08,12,9.60
2010,12,12,08,13,9.60
2010,12,12,08,14,9.60
2010,12,12,08,15,9.60
2010,12,12,08,16,9.60
2010,12,12,08,17,9.60
2010,12,12,08,18,9.60
2010,12,12,08,19,9.60
2010,12,12,08,20,9.60
2010,12,12,08,21,9.60
2010,12,12,08,22,9.60
2010,12,12,08,23,9.60
2010,12,12,08,24,9.60
2010,12,12,08,25,9.60
2010,12,12,08,26,9.60
2010,12,12,08,27,9.60
2010,12,12,08,28,9.60
2010,12,12,08,29,9.50
2010,12,12,08,30,9.50
2010,12,12,08,31,9.50
2010,12,12,08,32,9.50
2010,12,12,08,33,9.50
2010,12,12,08,34,9.50
2010,12,12,08,35,9.50
2010,12,12,08,36,9.50
2010,12,12,08,37,9.50
2010,12,12,08,38,9.50
2010,12,12,08,39,9.50
2010,12,12,08,40,9.50
2010,12,12,08,41,9.50
2010,12,12,08,42,9.40
2010,12,12,08,43,9.30
2010,12,12,08,44,9.20
2010,12,12,08,45,9.20
2010,12,12,08,46,9.10
2010,12,12,08,47,9.00
2010,12,12,08,48,8.80
2010,12,12,08,49,8.70
2010,12,12,08,50,8.60
2010,12,12,08,51,8.60
2010,12,12,08,52,8.50
2010,12,12,08,53,8.50
2010,12,12,08,54,8.40
2010,12,12,08,55,8.40
2010,12,12,08,56,8.30
2010,12,12,08,57,8.20
2010,12,12,08,58,8.20
2010,12,12,08,59,8.10
2010,12,12,09,00,8.10
2010,12,12,09,01,8.10
2010,12,12,09,02,8.10
2010,12,12,09,03,8.20
2010,12,12,09,04,8.20
2010,12,12,09,05,8.30
2010,12,12,09,06,8.30
2010,12,12,09,07,8.40
2010,12,12,09,08,8.40
2010,12,12,09,09,8.50
2010,12,12,09,10,8.60
2010,12,12,09,11,8.80
2010,12,12,09,12,9.10
2010,12,12,09,13,9.30
2010,12,12,09,14,9.40
2010,12,12,09,15,9.50
2010,12,12,09,16,9.60
2010,12,12,09,17,9.60
2010,12,12,09,18,9.70
2010,12,12,09,19,9.80
2010,12,12,09,20,9.90
2010,12,12,09,21,9.90
2010,12,12,09,22,10.00
2010,12,12,09,23,10.00
2010,12,12,09,24,10.00
2010,12,12,09,25,10.10
2010,12,12,09,26,10.10
2010,12,12,09,27,10.10
2010,12,12,09,28,10.20
2010,12,12,09,29,10.20
2010,12,12,09,30,10.20
2010,12,12,09,31,10.30
2010,12,12,09,32,10.30
2010,12,12,09,33,10.30
2010,12,12,09,34,10.30
2010,12,12,09,35,10.30
2010,12,12,09,36,10.30
2010,12,12,09,37,10.30
2010,12,12,09,38,10.30
2010,12,12,09,39,10.20
2010,12,12,09,40,10.20
2010,12,12,09,41,10.20
2010,12,12,09,42,10.20
2010,12,12,09,43,10.20
2010,12,12,09,44,10.20
2010,12,12,09,45,10.20
2010,12,12,09,46,10.20
2010,12,12,09,47,10.20
2010,12,12,09,48,10.20
2010,12,12,09,49,10.20
2010,12,12,09,50,10.20
2010,12,12,09,51,10.20
2010,12,12,09,52,10.20
2010,12,12,09,53,10.20
2010,12,12,09,54,10.30
2010,12,12,09,55,10.30
2010,12,12,09,56,10.30
2010,12,12,09,57,10.40
2010,12,12,09,58,10.40
2010,12,12,09,59,10.40
2010,12,12,10,00,10.40
2010,12,12,10,01,10.50
2010,12,12,10,02,10.50
2010,12,12,10,03,10.40
2010,12,12,10,04,10.40
2010,12,12,10,05,10.40
2010,12,12,10,06,10.40
2010,12,12,10,07,10.30
2010,12,12,10,08,10.30
2010,12,12,10,09,10.40
2010,12,12,10,10,10.40
2010,12,12,10,11,10.50
2010,12,12,10,12,10.60
2010,12,12,10,13,10.70
2010,12,12,10,14,10.80
2010,12,12,10,15,10.90
2010,12,12,10,16,10.90
2010,12,12,10,17,11.00
2010,12,12,10,18,11.10
2010,12,12,10,19,11.10
2010,12,12,10,20,11.20
2010,12,12,10,21,11.20
2010,12,12,10,22,11.20
2010,12,12,10,23,11.20
2010,12,12,10,24,11.30
2010,12,12,10,25,11.30
2010,12,12,10,26,11.30
2010,12,12,10,27,11.30
2010,12,12,10,28,11.30
2010,12,12,10,29,11.40
2010,12,12,10,30,11.40
2010,12,12,10,31,11.40
2010,12,12,10,32,11.40
2010,12,12,10,33,11.50
2010,12,12,10,34,11.50
2010,12,12,10,35,11.60
2010,12,12,10,36,11.60
2010,12,12,10,37,11.60
2010,12,12,10,38,11.70
2010,12,12,10,39,11.70
2010,12,12,10,40,11.70
2010,12,12,10,41,11.70
2010,12,12,10,42,11.80
2010,12,12,10,43,11.80
2010,12,12,10,44,11.80
2010,12,12,10,45,11.80
2010,12,12,10,46,11.80
2010,12,12,10,47,11.90
2010,12,12,10,48,11.90
2010,12,12,10,49,11.90
2010,12,12,10,50,11.90
2010,12,12,10,51,11.90
2010,12,12,10,52,11.90
2010,12,12,10,53,11.90
2010,12,12,10,54,11.90
2010,12,12,10,55,11.80
2010,12,12,10,56,11.70
2010,12,12,10,57,11.60
2010,12,12,10,58,11.50
2010,12,12,10,59,11.40
2010,12,12,11,00,11.30
2010,12,12,11,01,11.30
2010,12,12,11,02,11.20
2010,12,12,11,03,11.20
2010,12,12,11,04,11.10
2010,12,12,11,05,11.10
2010,12,12,11,06,11.10
2010,12,12,11,07,11.00
2010,12,12,11,08,11.00
2010,12,12,11,09,11.00
2010,12,12,11,10,10.90
2010,12,12,11,11,10.90
2010,12,12,11,12,10.90
2010,12,12,11,13,10.80
2010,12,12,11,14,10.80
2010,12,12,11,15,10.80
2010,12,12,11,16,10.80
2010,12,12,11,17,10.80
2010,12,12,11,18,10.70
2010,12,12,11,19,10.70
2010,12,12,11,20,10.70
2010,12,12,11,21,10.70
2010,12,12,11,22,10.70
2010,12,12,11,23,10.60
2010,12,12,11,24,10.60
2010,12,12,11,25,10.60
2010,12,12,11,26,10.60
2010,12,12,11,27,10.60
2010,12,12,11,28,10.60
2010,12,12,11,29,10.60
2010,12,12,11,30,10.60
2010,12,12,11,31,10.60
2010,12,12,11,32,10.60
2010,12,12,11,33,10.60
2010,12,12,11,34,10.60
2010,12,12,11,35,10.70
2010,12,12,11,36,10.70
2010,12,12,11,37,10.70
2010,12,12,11,38,10.80
2010,12,12,11,39,10.80
2010,12,12,11,40,10.80
2010,12,12,11,41,10.80
2010,12,12,11,42,10.80
2010,12,12,11,43,10.80
2010,12,12,11,44,10.80
2010,12,12,11,45,10.80
2010,12,12,11,46,10.80
2010,12,12,11,47,10.60
2010,12,12,11,48,10.40
2010,12,12,11,49,10.40
2010,12,12,11,50,10.30
2010,12,12,11,51,10.40
2010,12,12,11,52,10.40
2010,12,12,11,53,10.40
2010,12,12,11,54,10.50
2010,12,12,11,55,10.60
2010,12,12,11,56,10.70
2010,12,12,11,57,10.80
2010,12,12,11,58,11.00
2010,12,12,11,59,11.20
2010,12,12,12,00,11.40
2010,12,12,12,01,11.60
2010,12,12,12,02,11.70
2010,12,12,12,03,11.80
2010,12,12,12,04,11.90
2010,12,12,12,05,11.90
2010,12,12,12,06,12.00
2010,12,12,12,07,12.00
2010,12,12,12,08,12.10
2010,12,12,12,09,12.10
2010,12,12,12,10,12.20
2010,12,12,12,11,12.20
2010,12,12,12,12,12.20
2010,12,12,12,13,12.20
2010,12,12,12,14,12.20
2010,12,12,12,15,12.30
2010,12,12,12,16,12.30
2010,12,12,12,17,12.40
2010,12,12,12,18,12.40
2010,12,12,12,19,12.40
2010,12,12,12,20,12.40
2010,12,12,12,21,12.50
2010,12,12,12,22,12.50
2010,12,12,12,23,12.50
2010,12,12,12,24,12.50
2010,12,12,12,25,12.50
2010,12,12,12,26,12.50
2010,12,12,12,27,12.50
2010,12,12,12,28,12.60
2010,12,12,12,29,12.60
2010,12,12,12,30,12.70
2010,12,12,12,31,12.70
2010,12,12,12,32,12.70
2010,12,12,12,33,12.70
2010,12,12,12,34,12.70
2010,12,12,12,35,12.80
2010,12,12,12,36,12.80
2010,12,12,12,37,12.80
2010,12,12,12,38,12.80
2010,12,12,12,39,12.80
2010,12,12,12,40,12.90
2010,12,12,12,41,12.90
2010,12,12,12,42,12.90
2010,12,12,12,43,13.00
2010,12,12,12,44,13.00
2010,12,12,12,45,13.00
2010,12,12,12,46,13.10
2010,12,12,12,47,13.10
2010,12,12,12,48,13.10
2010,12,12,12,49,13.10
2010,12,12,12,50,13.10
2010,12,12,12,51,13.10
2010,12,12,12,52,13.10
2010,12,12,12,53,13.10
2010,12,12,12,54,13.20
2010,12,12,12,55,13.10
2010,12,12,12,56,13.20
2010,12,12,12,57,13.20
2010,12,12,12,58,13.20
2010,12,12,12,59,13.20
2010,12,12,13,00,13.20
2010,12,12,13,01,13.20
2010,12,12,13,02,13.20
2010,12,12,13,03,13.20
2010,12,12,13,04,13.10
2010,12,12,13,05,13.10
2010,12,12,13,06,13.10
2010,12,12,13,07,13.10
2010,12,12,13,08,13.10
2010,12,12,13,09,13.10
2010,12,12,13,10,13.10
2010,12,12,13,11,13.20
2010,12,12,13,12,13.20
2010,12,12,13,13,13.20
2010,12,12,13,14,13.20
2010,12,12,13,15,13.20
2010,12,12,13,16,13.20
2010,12,12,13,17,13.20
2010,12,12,13,18,13.20
2010,12,12,13,19,13.30
2010,12,12,13,20,13.30
2010,12,12,13,21,13.30
2010,12,12,13,22,13.30
2010,12,12,13,23,13.30
2010,12,12,13,24,13.30
2010,12,12,13,25,13.30
2010,12,12,13,26,13.30
2010,12,12,13,27,13.30
2010,12,12,13,28,13.30
2010,12,12,13,29,13.30
2010,12,12,13,30,13.30
2010,12,12,13,31,13.30
2010,12,12,13,32,13.30
2010,12,12,13,33,13.30
2010,12,12,13,34,13.40
2010,12,12,13,35,13.40
2010,12,12,13,36,13.40
2010,12,12,13,37,13.40
2010,12,12,13,38,13.40
2010,12,12,13,39,13.40
2010,12,12,13,40,13.40
2010,12,12,13,41,13.40
2010,12,12,13,42,13.40
2010,12,12,13,43,13.50
2010,12,12,13,44,13.50
2010,12,12,13,45,13.50
2010,12,12,13,46,13.50
2010,12,12,13,47,13.50
2010,12,12,13,48,13.60
2010,12,12,13,49,13.60
2010,12,12,13,50,13.60
2010,12,12,13,51,13.60
2010,12,12,13,52,13.60
2010,12,12,13,53,13.60
2010,12,12,13,54,13.60
2010,12,12,13,55,13.70
2010,12,12,13,56,13.70
2010,12,12,13,57,13.70
2010,12,12,13,58,13.70
2010,12,12,13,59,13.70
2010,12,12,14,00,13.70
2010,12,12,14,01,13.70
2010,12,12,14,02,13.70
2010,12,12,14,03,13.80
2010,12,12,14,04,13.80
2010,12,12,14,05,13.80
2010,12,12,14,06,13.80
2010,12,12,14,07,13.80
2010,12,12,14,08,13.80
2010,12,12,14,09,13.80
2010,12,12,14,10,13.80
2010,12,12,14,11,13.80
2010,12,12,14,12,13.80
2010,12,12,14,13,13.70
2010,12,12,14,14,13.50
2010,12,12,14,15,13.40
2010,12,12,14,16,13.30
2010,12,12,14,17,13.30
2010,12,12,14,18,13.20
2010,12,12,14,19,13.10
2010,12,12,14,20,13.10
2010,12,12,14,21,13.10
2010,12,12,14,22,13.00
2010,12,12,14,23,12.90
2010,12,12,14,24,12.80
2010,12,12,14,25,12.80
2010,12,12,14,26,12.70
2010,12,12,14,27,12.70
2010,12,12,14,28,12.70
2010,12,12,14,29,12.70
2010,12,12,14,30,12.60
2010,12,12,14,31,12.60
2010,12,12,14,32,12.60
2010,12,12,14,33,12.60
2010,12,12,14,34,12.50
2010,12,12,14,35,12.50
2010,12,12,14,36,12.50
2010,12,12,14,37,12.40
2010,12,12,14,38,12.40
2010,12,12,14,39,12.40
2010,12,12,14,40,12.40
2010,12,12,14,41,12.40
2010,12,12,14,42,12.30
2010,12,12,14,43,12.30
2010,12,12,14,44,12.30
2010,12,12,14,45,12.30
2010,12,12,14,46,12.20
2010,12,12,14,47,12.20
2010,12,12,14,48,12.20
2010,12,12,14,49,12.20
2010,12,12,14,50,12.20
2010,12,12,14,51,12.20
2010,12,12,14,52,12.10
2010,12,12,14,53,12.10
2010,12,12,14,54,12.10
2010,12,12,14,55,12.10
2010,12,12,14,56,12.10
2010,12,12,14,57,12.10
2010,12,12,14,58,12.10
2010,12,12,14,59,12.10
2010,12,12,15,00,12.10
2010,12,12,15,01,12.10
2010,12,12,15,02,12.10
2010,12,12,15,03,12.10
2010,12,12,15,04,12.10
2010,12,12,15,05,12.10
2010,12,12,15,06,12.10
2010,12,12,15,07,12.00
2010,12,12,15,08,12.00
2010,12,12,15,09,12.00
2010,12,12,15,10,12.00
2010,12,12,15,11,12.00
2010,12,12,15,12,12.00
2010,12,12,15,13,12.00
2010,12,12,15,14,11.90
2010,12,12,15,15,11.90
2010,12,12,15,16,11.90
2010,12,12,15,17,11.90
2010,12,12,15,18,11.90
2010,12,12,15,19,11.90
2010,12,12,15,20,11.90
2010,12,12,15,21,11.90
2010,12,12,15,22,11.90
2010,12,12,15,23,11.90
2010,12,12,15,24,11.90
2010,12,12,15,25,11.90
2010,12,12,15,26,11.90
2010,12,12,15,27,11.90
2010,12,12,15,28,11.90
2010,12,12,15,29,11.90
2010,12,12,15,30,11.90
2010,12,12,15,31,11.90
2010,12,12,15,32,11.90
2010,12,12,15,33,11.80
2010,12,12,15,34,11.80
2010,12,12,15,35,11.80
2010,12,12,15,36,11.80
2010,12,12,15,37,11.70
2010,12,12,15,38,11.70
2010,12,12,15,39,11.60
2010,12,12,15,40,11.60
2010,12,12,15,41,11.60
2010,12,12,15,42,11.50
2010,12,12,15,43,11.50
2010,12,12,15,44,11.50
2010,12,12,15,45,11.50
2010,12,12,15,46,11.50
2010,12,12,15,47,11.50
2010,12,12,15,48,11.50
2010,12,12,15,49,11.50
2010,12,12,15,50,11.50
2010,12,12,15,51,11.40
2010,12,12,15,52,11.40
2010,12,12,15,53,11.40
2010,12,12,15,54,11.40
2010,12,12,15,55,11.40
2010,12,12,15,56,11.30
2010,12,12,15,57,11.30
2010,12,12,15,58,11.30
2010,12,12,15,59,11.30
2010,12,12,16,00,11.30
2010,12,12,16,01,11.30
2010,12,12,16,02,11.30
2010,12,12,16,03,11.30
2010,12,12,16,04,11.30
2010,12,12,16,05,11.30
2010,12,12,16,06,11.20
2010,12,12,16,07,11.20
2010,12,12,16,08,11.10
2010,12,12,16,09,11.10
2010,12,12,16,10,11.10
2010,12,12,16,11,11.00
2010,12,12,16,12,11.00
2010,12,12,16,13,11.00
2010,12,12,16,14,11.00
2010,12,12,16,15,11.00
2010,12,12,16,16,11.00
2010,12,12,16,17,11.00
2010,12,12,16,18,10.90
2010,12,12,16,19,10.90
2010,12,12,16,20,10.90
2010,12,12,16,21,10.90
2010,12,12,16,22,10.80
2010,12,12,16,23,10.80
2010,12,12,16,24,10.80
2010,12,12,16,25,10.80
2010,12,12,16,26,10.80
2010,12,12,16,27,10.90
2010,12,12,16,28,10.90
2010,12,12,16,29,10.90
2010,12,12,16,30,10.90
2010,12,12,16,31,10.90
2010,12,12,16,32,10.90
2010,12,12,16,33,10.90
2010,12,12,16,34,10.90
2010,12,12,16,35,10.90
2010,12,12,16,36,10.90
2010,12,12,16,37,10.90
2010,12,12,16,38,10.90
2010,12,12,16,39,10.90
2010,12,12,16,40,10.90
2010,12,12,16,41,10.90
2010,12,12,16,42,10.90
2010,12,12,16,43,10.90
2010,12,12,16,44,10.90
2010,12,12,16,45,10.80
2010,12,12,16,46,10.80
2010,12,12,16,47,10.80
2010,12,12,16,48,10.80
2010,12,12,16,49,10.80
2010,12,12,16,50,10.80
2010,12,12,16,51,10.80
2010,12,12,16,52,10.80
2010,12,12,16,53,10.80
2010,12,12,16,54,10.80
2010,12,12,16,55,10.70
2010,12,12,16,56,10.70
2010,12,12,16,57,10.70
2010,12,12,16,58,10.70
2010,12,12,16,59,10.70
2010,12,12,17,00,10.70
2010,12,12,17,01,10.70
2010,12,12,17,02,10.60
2010,12,12,17,03,10.60
2010,12,12,17,04,10.60
2010,12,12,17,05,10.60
2010,12,12,17,06,10.60
2010,12,12,17,07,10.50
2010,12,12,17,08,10.50
2010,12,12,17,09,10.40
2010,12,12,17,10,10.40
2010,12,12,17,11,10.40
2010,12,12,17,12,10.40
2010,12,12,17,13,10.30
2010,12,12,17,14,10.30
2010,12,12,17,15,10.30
2010,12,12,17,16,10.30
2010,12,12,17,17,10.30
2010,12,12,17,18,10.30
2010,12,12,17,19,10.30
2010,12,12,17,20,10.30
2010,12,12,17,21,10.30
2010,12,12,17,22,10.30
2010,12,12,17,23,10.20
2010,12,12,17,24,10.20
2010,12,12,17,25,10.30
2010,12,12,17,26,10.30
2010,12,12,17,27,10.30
2010,12,12,17,28,10.40
2010,12,12,17,29,10.40
2010,12,12,17,30,10.40
2010,12,12,17,31,10.40
2010,12,12,17,32,10.40
2010,12,12,17,33,10.40
2010,12,12,17,34,10.40
2010,12,12,17,35,10.40
2010,12,12,17,36,10.40
2010,12,12,17,37,10.40
2010,12,12,17,38,10.30
2010,12,12,17,39,10.30
2010,12,12,17,40,10.30
2010,12,12,17,41,10.30
2010,12,12,17,42,10.30
2010,12,12,17,43,10.30